| time (UTC) | temp C | wind direction | speed KPH | gust KPH | rain 1hr cm | rain 24hr cm | rain mn cm | humidity % | barometer mb |
| 20260505230545 | 24 | 234 | 4.8 | 12.9 | 0.00 | 0.00 | 0.00 | 44 | 1010.0 |
| 20260505230049 | 25 | 271 | 1.6 | 12.9 | 0.00 | 0.00 | 0.00 | 46 | 1010.1 |
| 20260505225544 | 25 | 211 | 3.2 | 9.7 | 0.00 | 0.00 | 0.00 | 44 | 1010.2 |
| 20260505225044 | 25 | 105 | 1.6 | 12.9 | 0.00 | 0.00 | 0.00 | 44 | 1010.0 |
| 20260505224548 | 25 | 267 | 3.2 | 12.9 | 0.00 | 0.00 | 0.00 | 43 | 1010.0 |
| 20260505224043 | 25 | 224 | 1.6 | 12.9 | 0.00 | 0.00 | 0.00 | 45 | 1010.1 |
| 20260505223543 | 25 | 236 | 4.8 | 12.9 | 0.00 | 0.00 | 0.00 | 43 | 1010.1 |
| 20260505223043 | 25 | 261 | 1.6 | 14.5 | 0.00 | 0.00 | 0.00 | 45 | 1010.2 |
| 20260505222544 | 25 | 250 | 1.6 | 16.1 | 0.00 | 0.00 | 0.00 | 46 | 1010.3 |
| 20260505222047 | 25 | 244 | 3.2 | 16.1 | 0.00 | 0.00 | 0.00 | 45 | 1010.2 |
| 20260505221550 | 25 | 238 | 4.8 | 17.7 | 0.00 | 0.00 | 0.00 | 45 | 1010.3 |
| 20260505221042 | 25 | 194 | 3.2 | 14.5 | 0.00 | 0.00 | 0.00 | 46 | 1010.4 |
| 20260505220541 | 25 | 252 | 3.2 | 14.5 | 0.00 | 0.00 | 0.00 | 43 | 1010.2 |
| 20260505220048 | 25 | 263 | 3.2 | 16.1 | 0.00 | 0.00 | 0.00 | 44 | 1010.2 |
| 20260505215541 | 25 | 180 | 6.4 | 14.5 | 0.00 | 0.00 | 0.00 | 44 | 1010.2 |
| 20260505215040 | 25 | 248 | 4.8 | 14.5 | 0.00 | 0.00 | 0.00 | 42 | 1010.2 |
| 20260505214547 | 25 | 288 | 1.6 | 14.5 | 0.00 | 0.00 | 0.00 | 45 | 1010.2 |
| 20260505214039 | 25 | 92 | 3.2 | 14.5 | 0.00 | 0.00 | 0.00 | 42 | 1010.3 |
| 20260505213539 | 25 | 202 | 3.2 | 14.5 | 0.00 | 0.00 | 0.00 | 42 | 1010.3 |
| 20260505213039 | 25 | 268 | 4.8 | 14.5 | 0.00 | 0.00 | 0.00 | 42 | 1010.3 |
| 20260505212540 | 25 | 217 | 1.6 | 19.3 | 0.00 | 0.00 | 0.00 | 44 | 1010.4 |
| 20260505212039 | 25 | 208 | 4.8 | 19.3 | 0.00 | 0.00 | 0.00 | 40 | 1010.3 |
| 20260505211607 | 25 | 257 | 3.2 | 8.0 | 0.00 | 0.00 | 0.00 | 44 | 1010.3 |
| 20260505211038 | 25 | 212 | 3.2 | 9.7 | 0.00 | 0.00 | 0.00 | 45 | 1010.4 |
| 20260505210537 | 25 | 231 | 3.2 | 9.7 | 0.00 | 0.00 | 0.00 | 45 | 1010.6 |
| 20260505210043 | 25 | 240 | 1.6 | 9.7 | 0.00 | 0.00 | 0.00 | 45 | 1010.6 |
| 20260505205536 | 25 | 250 | 1.6 | 8.0 | 0.00 | 0.00 | 0.00 | 43 | 1010.6 |
| 20260505205036 | 26 | 246 | 1.6 | 9.7 | 0.00 | 0.00 | 0.00 | 44 | 1010.6 |
| 20260505204544 | 26 | 229 | 1.6 | 9.7 | 0.00 | 0.00 | 0.00 | 45 | 1010.6 |
| 20260505204035 | 26 | 292 | 4.8 | 14.5 | 0.00 | 0.00 | 0.00 | 43 | 1010.8 |
| 20260505203533 | 26 | 232 | 3.2 | 14.5 | 0.00 | 0.00 | 0.00 | 44 | 1011.0 |
| 20260505203032 | 26 | 150 | 1.6 | 8.0 | 0.00 | 0.00 | 0.00 | 45 | 1011.0 |
| 20260505202532 | 26 | 241 | 1.6 | 9.7 | 0.00 | 0.00 | 0.00 | 45 | 1011.1 |
| 20260505202034 | 26 | 200 | 3.2 | 9.7 | 0.00 | 0.00 | 0.00 | 43 | 1011.1 |
| 20260505201536 | 26 | 252 | 1.6 | 11.3 | 0.00 | 0.00 | 0.00 | 43 | 1011.0 |
| 20260505201030 | 25 | 246 | 3.2 | 11.3 | 0.00 | 0.00 | 0.00 | 47 | 1011.1 |
| 20260505200529 | 25 | 238 | 1.6 | 9.7 | 0.00 | 0.00 | 0.00 | 49 | 1011.2 |
| 20260505200028 | 25 | 133 | 1.6 | 9.7 | 0.00 | 0.00 | 0.00 | 47 | 1011.3 |
| 20260505195527 | 24 | 254 | 3.2 | 11.3 | 0.00 | 0.00 | 0.00 | 47 | 1011.4 |
| 20260505195027 | 24 | 176 | 3.2 | 11.3 | 0.00 | 0.00 | 0.00 | 41 | 1011.3 |
| 20260505194526 | 24 | 261 | 3.2 | 12.9 | 0.00 | 0.00 | 0.00 | 45 | 1011.5 |
| 20260505194035 | 24 | 200 | 1.6 | 12.9 | 0.00 | 0.00 | 0.00 | 47 | 1011.5 |
| 20260505193523 | 25 | 244 | 4.8 | 11.3 | 0.00 | 0.00 | 0.00 | 44 | 1011.7 |
| 20260505193025 | 25 | 253 | 0.0 | 12.9 | 0.00 | 0.00 | 0.00 | 46 | 1011.8 |
| 20260505192522 | 25 | 265 | 3.2 | 12.9 | 0.00 | 0.00 | 0.00 | 46 | 1011.9 |
| 20260505192022 | 25 | 175 | 1.6 | 11.3 | 0.00 | 0.00 | 0.00 | 48 | 1012.0 |
| 20260505191525 | 25 | 269 | 3.2 | 11.3 | 0.00 | 0.00 | 0.00 | 49 | 1012.1 |
| 20260505191021 | 25 | 244 | 1.6 | 9.7 | 0.00 | 0.00 | 0.00 | 48 | 1012.1 |
| 20260505190522 | 25 | 164 | 1.6 | 11.3 | 0.00 | 0.00 | 0.00 | 49 | 1012.1 |
| 20260505190022 | 25 | 248 | 3.2 | 12.9 | 0.00 | 0.00 | 0.00 | 48 | 1012.3 |
| 20260505185519 | 25 | 150 | 3.2 | 12.9 | 0.00 | 0.00 | 0.00 | 51 | 1012.3 |
| 20260505185018 | 25 | 200 | 1.6 | 17.7 | 0.00 | 0.00 | 0.00 | 49 | 1012.5 |
| 20260505184518 | 25 | 266 | 1.6 | 17.7 | 0.00 | 0.00 | 0.00 | 50 | 1012.6 |
| 20260505184018 | 25 | 175 | 3.2 | 19.3 | 0.00 | 0.00 | 0.00 | 49 | 1012.7 |
| 20260505183521 | 25 | 224 | 4.8 | 19.3 | 0.00 | 0.00 | 0.00 | 50 | 1012.9 |
| 20260505183016 | 24 | 316 | 1.6 | 9.7 | 0.00 | 0.00 | 0.00 | 53 | 1012.9 |
| 20260505182515 | 24 | 217 | 3.2 | 12.9 | 0.00 | 0.00 | 0.00 | 50 | 1013.0 |
| 20260505182018 | 24 | 214 | 3.2 | 12.9 | 0.00 | 0.00 | 0.00 | 51 | 1013.1 |
| 20260505181515 | 24 | 254 | 3.2 | 12.9 | 0.00 | 0.00 | 0.00 | 53 | 1013.2 |
| 20260505181015 | 24 | 187 | 4.8 | 12.9 | 0.00 | 0.00 | 0.00 | 49 | 1013.3 |
| 20260505180514 | 24 | 235 | 3.2 | 14.5 | 0.00 | 0.00 | 0.00 | 50 | 1013.3 |
| 20260505180014 | 24 | 256 | 6.4 | 12.9 | 0.00 | 0.00 | 0.00 | 51 | 1013.3 |
| 20260505175514 | 25 | 225 | 3.2 | 16.1 | 0.00 | 0.00 | 0.00 | 50 | 1013.5 |
| 20260505175014 | 25 | 276 | 4.8 | 16.1 | 0.00 | 0.00 | 0.00 | 49 | 1013.6 |
| 20260505174522 | 25 | 277 | 4.8 | 14.5 | 0.00 | 0.00 | 0.00 | 48 | 1013.6 |
| 20260505174012 | 25 | 264 | 3.2 | 14.5 | 0.00 | 0.00 | 0.00 | 49 | 1013.7 |
| 20260505173513 | 24 | 270 | 6.4 | 14.5 | 0.00 | 0.00 | 0.00 | 49 | 1013.7 |
| 20260505173012 | 24 | 262 | 6.4 | 12.9 | 0.00 | 0.00 | 0.00 | 47 | 1013.6 |
| 20260505172514 | 24 | 215 | 4.8 | 14.5 | 0.00 | 0.00 | 0.00 | 47 | 1013.6 |
| 20260505172011 | 24 | 267 | 4.8 | 14.5 | 0.00 | 0.00 | 0.00 | 49 | 1013.9 |
| 20260505171517 | 23 | 185 | 1.6 | 12.9 | 0.00 | 0.00 | 0.00 | 48 | 1014.0 |
| 20260505171012 | 24 | 252 | 3.2 | 12.9 | 0.00 | 0.00 | 0.00 | 50 | 1014.1 |
| 20260505170511 | 24 | 260 | 6.4 | 12.9 | 0.00 | 0.00 | 0.00 | 48 | 1014.2 |
| 20260505170010 | 24 | 217 | 3.2 | 12.9 | 0.00 | 0.00 | 0.00 | 48 | 1014.2 |
| 20260505165510 | 25 | 163 | 3.2 | 11.3 | 0.00 | 0.00 | 0.00 | 49 | 1014.3 |
| 20260505165011 | 25 | 286 | 3.2 | 17.7 | 0.00 | 0.00 | 0.00 | 47 | 1014.4 |
| 20260505164508 | 24 | 224 | 4.8 | 17.7 | 0.00 | 0.00 | 0.00 | 49 | 1014.5 |
| 20260505164008 | 24 | 209 | 1.6 | 14.5 | 0.00 | 0.00 | 0.00 | 54 | 1014.6 |
| 20260505163508 | 24 | 177 | 4.8 | 11.3 | 0.00 | 0.00 | 0.00 | 47 | 1014.6 |
| 20260505163011 | 24 | 215 | 4.8 | 14.5 | 0.00 | 0.00 | 0.00 | 49 | 1014.6 |
| 20260505162507 | 24 | 313 | 3.2 | 19.3 | 0.00 | 0.00 | 0.00 | 52 | 1014.6 |
| 20260505162007 | 24 | 257 | 3.2 | 12.9 | 0.00 | 0.00 | 0.00 | 49 | 1014.7 |
| 20260505161507 | 24 | 250 | 1.6 | 12.9 | 0.00 | 0.00 | 0.00 | 51 | 1014.6 |
| 20260505161006 | 24 | 211 | 3.2 | 12.9 | 0.00 | 0.00 | 0.00 | 51 | 1014.6 |
| 20260505160508 | 24 | 154 | 1.6 | 11.3 | 0.00 | 0.00 | 0.00 | 50 | 1014.5 |
| 20260505153058 | 22 | 245 | 6.4 | 12.9 | 0.00 | 0.00 | 0.00 | 53 | 1014.6 |
| 20260505152555 | 22 | 187 | 1.6 | 9.7 | 0.00 | 0.00 | 0.00 | 59 | 1014.5 |
| 20260505152053 | 22 | 248 | 3.2 | 9.7 | 0.00 | 0.00 | 0.00 | 59 | 1014.7 |
| 20260505151559 | 22 | 245 | 0.0 | 11.3 | 0.00 | 0.00 | 0.00 | 61 | 1014.5 |
| 20260505151054 | 22 | 229 | 3.2 | 11.3 | 0.00 | 0.00 | 0.00 | 56 | 1014.4 |
| 20260505150550 | 21 | 281 | 1.6 | 8.0 | 0.00 | 0.00 | 0.00 | 61 | 1014.6 |
| 20260505140538 | 19 | 259 | 0.0 | 12.9 | 0.00 | 0.00 | 0.00 | 63 | 1014.8 |
| 20260505125018 | 13 | 224 | 0.0 | 1.6 | 0.00 | 0.00 | 0.00 | 81 | 1014.6 |
| 20260505124518 | 13 | 225 | 0.0 | 1.6 | 0.00 | 0.00 | 0.00 | 83 | 1014.6 |
| 20260505124016 | 12 | 223 | 0.0 | 0.0 | 0.00 | 0.00 | 0.00 | 85 | 1014.5 |
| 20260505123516 | 12 | 223 | 0.0 | 0.0 | 0.00 | 0.00 | 0.00 | 87 | 1014.6 |
| 20260505123017 | 12 | 223 | 0.0 | 0.0 | 0.00 | 0.00 | 0.00 | 87 | 1014.5 |
| 20260505122515 | 12 | 223 | 0.0 | 0.0 | 0.00 | 0.00 | 0.00 | 88 | 1014.5 |
| 20260505122018 | 11 | 223 | 0.0 | 0.0 | 0.00 | 0.00 | 0.00 | 89 | 1014.5 |
| 20260505121615 | 11 | 225 | 0.0 | 0.0 | 0.00 | 0.00 | 0.00 | 90 | 1014.5 |
| 20260505121015 | 11 | 225 | 0.0 | 0.0 | 0.00 | 0.00 | 0.00 | 91 | 1014.4 |
| 20260505120514 | 11 | 225 | 0.0 | 0.0 | 0.00 | 0.00 | 0.00 | 91 | 1014.5 |
| 20260505120014 | 10 | 225 | 0.0 | 0.0 | 0.00 | 0.00 | 0.00 | 91 | 1014.4 |
| 20260505115512 | 10 | 225 | 0.0 | 0.0 | 0.00 | 0.00 | 0.00 | 91 | 1014.5 |
| 20260505115011 | 10 | 225 | 0.0 | 0.0 | 0.00 | 0.00 | 0.00 | 90 | 1014.4 |
| 20260505114511 | 10 | 225 | 0.0 | 0.0 | 0.00 | 0.00 | 0.00 | 90 | 1014.3 |
| 20260505114010 | 10 | 225 | 0.0 | 0.0 | 0.00 | 0.00 | 0.00 | 90 | 1014.4 |
| 20260505113508 | 10 | 225 | 0.0 | 0.0 | 0.00 | 0.00 | 0.00 | 90 | 1014.2 |
| 20260505113007 | 10 | 225 | 0.0 | 0.0 | 0.00 | 0.00 | 0.00 | 90 | 1014.1 |
| 20260505112510 | 9 | 225 | 0.0 | 0.0 | 0.00 | 0.00 | 0.00 | 90 | 1014.0 |
| 20260505112006 | 9 | 225 | 0.0 | 0.0 | 0.00 | 0.00 | 0.00 | 90 | 1014.0 |
| 20260505111505 | 9 | 225 | 0.0 | 0.0 | 0.00 | 0.00 | 0.00 | 89 | 1013.7 |
| 20260505111005 | 9 | 225 | 0.0 | 0.0 | 0.00 | 0.00 | 0.00 | 89 | 1013.7 |
| 20260505110505 | 9 | 225 | 0.0 | 0.0 | 0.00 | 0.00 | 0.00 | 89 | 1013.6 |
| 20260505102100 | 10 | 225 | 0.0 | 0.0 | 0.00 | 0.00 | 0.00 | 87 | 1013.7 |
| 20260505101606 | 10 | 225 | 0.0 | 0.0 | 0.00 | 0.00 | 0.00 | 87 | 1013.7 |
| 20260505101059 | 10 | 225 | 0.0 | 0.0 | 0.00 | 0.00 | 0.00 | 87 | 1013.8 |
| 20260505100558 | 10 | 225 | 0.0 | 0.0 | 0.00 | 0.00 | 0.00 | 86 | 1013.8 |
| 20260505100058 | 10 | 225 | 0.0 | 0.0 | 0.00 | 0.00 | 0.00 | 86 | 1013.7 |
| 20260505095556 | 10 | 225 | 0.0 | 0.0 | 0.00 | 0.00 | 0.00 | 86 | 1013.7 |
| 20260505095057 | 10 | 225 | 0.0 | 0.0 | 0.00 | 0.00 | 0.00 | 86 | 1013.7 |
| 20260505094556 | 10 | 225 | 0.0 | 0.0 | 0.00 | 0.00 | 0.00 | 86 | 1013.7 |
| 20260505094056 | 10 | 225 | 0.0 | 0.0 | 0.00 | 0.00 | 0.00 | 86 | 1013.7 |
| 20260505093556 | 10 | 225 | 0.0 | 0.0 | 0.00 | 0.00 | 0.00 | 86 | 1013.7 |
| 20260505093055 | 10 | 225 | 0.0 | 0.0 | 0.00 | 0.00 | 0.00 | 85 | 1013.7 |
| 20260505092555 | 10 | 225 | 0.0 | 0.0 | 0.00 | 0.00 | 0.00 | 85 | 1013.7 |
| 20260505092053 | 10 | 225 | 0.0 | 0.0 | 0.00 | 0.00 | 0.00 | 85 | 1013.8 |
| 20260505091556 | 11 | 225 | 0.0 | 0.0 | 0.00 | 0.00 | 0.00 | 85 | 1013.7 |
| 20260505091052 | 11 | 225 | 0.0 | 0.0 | 0.00 | 0.00 | 0.00 | 85 | 1013.8 |
| 20260505090552 | 11 | 225 | 0.0 | 0.0 | 0.00 | 0.00 | 0.00 | 84 | 1013.6 |
| 20260505090051 | 11 | 225 | 0.0 | 0.0 | 0.00 | 0.00 | 0.00 | 84 | 1013.6 |
| 20260505085550 | 11 | 225 | 0.0 | 0.0 | 0.00 | 0.00 | 0.00 | 84 | 1013.5 |
| 20260505085050 | 11 | 225 | 0.0 | 0.0 | 0.00 | 0.00 | 0.00 | 83 | 1013.5 |
| 20260505084600 | 11 | 225 | 0.0 | 0.0 | 0.00 | 0.00 | 0.00 | 83 | 1013.5 |
| 20260505084054 | 11 | 225 | 0.0 | 0.0 | 0.00 | 0.00 | 0.00 | 83 | 1013.5 |
| 20260505083548 | 11 | 225 | 0.0 | 0.0 | 0.00 | 0.00 | 0.00 | 82 | 1013.4 |
| 20260505083058 | 11 | 225 | 0.0 | 0.0 | 0.00 | 0.00 | 0.00 | 83 | 1013.3 |
| 20260505082547 | 11 | 225 | 0.0 | 0.0 | 0.00 | 0.00 | 0.00 | 82 | 1013.3 |
| 20260505082046 | 11 | 225 | 0.0 | 0.0 | 0.00 | 0.00 | 0.00 | 81 | 1013.3 |
| 20260505081545 | 12 | 225 | 0.0 | 0.0 | 0.00 | 0.00 | 0.00 | 80 | 1013.2 |
| 20260505081044 | 12 | 225 | 0.0 | 0.0 | 0.00 | 0.00 | 0.00 | 81 | 1013.3 |
| 20260505080545 | 12 | 225 | 0.0 | 0.0 | 0.00 | 0.00 | 0.00 | 80 | 1013.3 |
| 20260505080042 | 12 | 225 | 0.0 | 0.0 | 0.00 | 0.00 | 0.00 | 79 | 1013.3 |
| 20260505075543 | 12 | 225 | 0.0 | 0.0 | 0.00 | 0.00 | 0.00 | 79 | 1013.3 |
| 20260505075039 | 12 | 225 | 0.0 | 0.0 | 0.00 | 0.00 | 0.00 | 78 | 1013.3 |
| 20260505074539 | 13 | 225 | 0.0 | 0.0 | 0.00 | 0.00 | 0.00 | 78 | 1013.3 |
| 20260505074040 | 13 | 225 | 0.0 | 0.0 | 0.00 | 0.00 | 0.00 | 77 | 1013.2 |
| 20260505073541 | 13 | 225 | 0.0 | 0.0 | 0.00 | 0.00 | 0.00 | 76 | 1013.3 |
| 20260505073042 | 13 | 225 | 0.0 | 0.0 | 0.00 | 0.00 | 0.00 | 75 | 1013.3 |
| 20260505072539 | 13 | 225 | 0.0 | 1.6 | 0.00 | 0.00 | 0.00 | 74 | 1013.4 |
| 20260505072043 | 14 | 225 | 0.0 | 3.2 | 0.00 | 0.00 | 0.00 | 73 | 1013.4 |
| 20260505071538 | 14 | 227 | 0.0 | 4.8 | 0.00 | 0.00 | 0.00 | 73 | 1013.5 |
| 20260505071038 | 14 | 237 | 0.0 | 3.2 | 0.00 | 0.00 | 0.00 | 72 | 1013.5 |
| 20260505070538 | 14 | 232 | 0.0 | 6.4 | 0.00 | 0.00 | 0.00 | 73 | 1013.5 |
| 20260505070038 | 14 | 225 | 0.0 | 4.8 | 0.00 | 0.00 | 0.00 | 71 | 1013.4 |
| 20260505065537 | 14 | 227 | 0.0 | 8.0 | 0.00 | 0.00 | 0.00 | 71 | 1013.5 |
| 20260505065036 | 14 | 238 | 0.0 | 8.0 | 0.00 | 0.00 | 0.00 | 72 | 1013.5 |
| 20260505064554 | 14 | 250 | 0.0 | 3.2 | 0.00 | 0.00 | 0.00 | 72 | 1013.5 |
| 20260505064037 | 14 | 231 | 0.0 | 9.7 | 0.00 | 0.00 | 0.00 | 72 | 1013.4 |
| 20260505063538 | 14 | 211 | 1.6 | 9.7 | 0.00 | 0.00 | 0.00 | 72 | 1013.3 |
| 20260505063036 | 14 | 258 | 1.6 | 9.7 | 0.00 | 0.00 | 0.00 | 73 | 1013.3 |
| 20260505062537 | 13 | 238 | 1.6 | 9.7 | 0.00 | 0.00 | 0.00 | 74 | 1013.3 |
| 20260505062035 | 13 | 247 | 1.6 | 4.8 | 0.00 | 0.00 | 0.00 | 76 | 1013.4 |
| 20260505061535 | 13 | 264 | 1.6 | 9.7 | 0.00 | 0.00 | 0.00 | 75 | 1013.4 |
| 20260505061036 | 13 | 200 | 1.6 | 9.7 | 0.00 | 0.00 | 0.00 | 76 | 1013.4 |
| 20260505060535 | 13 | 198 | 0.0 | 11.3 | 0.00 | 0.00 | 0.00 | 77 | 1013.4 |
| 20260505060134 | 13 | 233 | 1.6 | 11.3 | 0.00 | 0.00 | 0.00 | 77 | 1013.3 |
| 20260505055535 | 13 | 251 | 0.0 | 1.6 | 0.00 | 0.00 | 0.00 | 79 | 1013.4 |
| 20260505055033 | 13 | 251 | 0.0 | 3.2 | 0.00 | 0.00 | 0.00 | 79 | 1013.4 |
| 20260505054545 | 13 | 248 | 0.0 | 1.6 | 0.00 | 0.00 | 0.00 | 79 | 1013.3 |
| 20260505054032 | 13 | 250 | 0.0 | 3.2 | 0.00 | 0.00 | 0.00 | 78 | 1013.4 |
| 20260505053531 | 13 | 250 | 0.0 | 3.2 | 0.00 | 0.00 | 0.00 | 78 | 1013.3 |
| 20260505053030 | 13 | 217 | 0.0 | 0.0 | 0.00 | 0.00 | 0.00 | 78 | 1013.3 |
| 20260505052529 | 13 | 217 | 0.0 | 0.0 | 0.00 | 0.00 | 0.00 | 77 | 1013.2 |
| 20260505052029 | 13 | 217 | 0.0 | 0.0 | 0.00 | 0.00 | 0.00 | 77 | 1013.1 |
| 20260505051527 | 13 | 217 | 0.0 | 0.0 | 0.00 | 0.00 | 0.00 | 77 | 1013.0 |
| 20260505051027 | 14 | 217 | 0.0 | 0.0 | 0.00 | 0.00 | 0.00 | 76 | 1013.1 |
| 20260505050527 | 14 | 217 | 0.0 | 0.0 | 0.00 | 0.00 | 0.00 | 76 | 1013.3 |
| 20260505041519 | 15 | 247 | 0.0 | 3.2 | 0.00 | 0.00 | 0.00 | 74 | 1013.3 |
| 20260505041020 | 15 | 256 | 0.0 | 3.2 | 0.00 | 0.00 | 0.00 | 74 | 1013.3 |
| 20260505040519 | 15 | 257 | 0.0 | 1.6 | 0.00 | 0.00 | 0.00 | 74 | 1013.2 |
| 20260505040018 | 15 | 257 | 0.0 | 3.2 | 0.00 | 0.00 | 0.00 | 73 | 1013.2 |
| 20260505035516 | 15 | 267 | 0.0 | 3.2 | 0.00 | 0.00 | 0.00 | 73 | 1013.2 |
| 20260505035016 | 15 | 292 | 0.0 | 1.6 | 0.00 | 0.00 | 0.00 | 72 | 1013.2 |
| 20260505034525 | 15 | 292 | 0.0 | 1.6 | 0.00 | 0.00 | 0.00 | 73 | 1013.2 |
| 20260505034016 | 15 | 292 | 0.0 | 0.0 | 0.00 | 0.00 | 0.00 | 71 | 1013.1 |
| 20260505033516 | 15 | 292 | 0.0 | 0.0 | 0.00 | 0.00 | 0.00 | 71 | 1013.2 |
| 20260505033016 | 16 | 292 | 0.0 | 0.0 | 0.00 | 0.00 | 0.00 | 70 | 1013.0 |
| 20260505032516 | 16 | 292 | 0.0 | 0.0 | 0.00 | 0.00 | 0.00 | 69 | 1013.1 |
| 20260505032016 | 16 | 292 | 0.0 | 0.0 | 0.00 | 0.00 | 0.00 | 69 | 1013.3 |
| 20260505031516 | 16 | 292 | 0.0 | 0.0 | 0.00 | 0.00 | 0.00 | 69 | 1013.3 |
| 20260505031015 | 16 | 292 | 0.0 | 0.0 | 0.00 | 0.00 | 0.00 | 67 | 1013.2 |
| 20260505030515 | 16 | 292 | 0.0 | 3.2 | 0.00 | 0.00 | 0.00 | 67 | 1013.2 |
| 20260505030035 | 16 | 293 | 0.0 | 3.2 | 0.00 | 0.00 | 0.00 | 66 | 1013.2 |
| 20260505025516 | 16 | 248 | 0.0 | 0.0 | 0.00 | 0.00 | 0.00 | 67 | 1013.3 |
| 20260505025016 | 17 | 248 | 0.0 | 0.0 | 0.00 | 0.00 | 0.00 | 66 | 1013.3 |
| 20260505024517 | 17 | 247 | 0.0 | 0.0 | 0.00 | 0.00 | 0.00 | 65 | 1013.9 |
| 20260505024015 | 17 | 247 | 0.0 | 0.0 | 0.00 | 0.00 | 0.00 | 64 | 1013.4 |
| 20260505023516 | 17 | 247 | 0.0 | 0.0 | 0.00 | 0.00 | 0.00 | 64 | 1013.4 |
| 20260505023014 | 17 | 247 | 0.0 | 0.0 | 0.00 | 0.00 | 0.00 | 63 | 1013.5 |
| 20260505022514 | 17 | 256 | 0.0 | 0.0 | 0.00 | 0.00 | 0.00 | 63 | 1013.5 |
| 20260505022014 | 18 | 253 | 0.0 | 4.8 | 0.00 | 0.00 | 0.00 | 62 | 1013.4 |
| 20260505021516 | 18 | 257 | 0.0 | 4.8 | 0.00 | 0.00 | 0.00 | 62 | 1013.4 |
| 20260505021015 | 18 | 239 | 0.0 | 4.8 | 0.00 | 0.00 | 0.00 | 62 | 1013.3 |
| 20260505020514 | 18 | 246 | 1.6 | 4.8 | 0.00 | 0.00 | 0.00 | 61 | 1013.3 |
| 20260505020013 | 18 | 258 | 0.0 | 9.7 | 0.00 | 0.00 | 0.00 | 61 | 1013.2 |
| 20260505015512 | 18 | 235 | 1.6 | 9.7 | 0.00 | 0.00 | 0.00 | 61 | 1013.1 |
| 20260505015012 | 18 | 240 | 1.6 | 8.0 | 0.00 | 0.00 | 0.00 | 61 | 1013.2 |
| 20260505014519 | 18 | 213 | 0.0 | 8.0 | 0.00 | 0.00 | 0.00 | 61 | 1013.1 |
| 20260505014012 | 18 | 241 | 1.6 | 6.4 | 0.00 | 0.00 | 0.00 | 62 | 1013.1 |
| 20260505013512 | 18 | 194 | 0.0 | 8.0 | 0.00 | 0.00 | 0.00 | 61 | 1012.9 |
| 20260505013018 | 18 | 218 | 1.6 | 9.7 | 0.00 | 0.00 | 0.00 | 60 | 1012.9 |
| 20260505012513 | 18 | 220 | 1.6 | 9.7 | 0.00 | 0.00 | 0.00 | 60 | 1012.9 |
| 20260505012012 | 18 | 240 | 0.0 | 6.4 | 0.00 | 0.00 | 0.00 | 60 | 1012.9 |
| 20260505011513 | 18 | 234 | 1.6 | 8.0 | 0.00 | 0.00 | 0.00 | 60 | 1012.9 |
| 20260505011011 | 18 | 252 | 1.6 | 8.0 | 0.00 | 0.00 | 0.00 | 59 | 1012.8 |
| 20260505010511 | 19 | 204 | 1.6 | 6.4 | 0.00 | 0.00 | 0.00 | 59 | 1012.8 |
| 20260505010011 | 19 | 220 | 1.6 | 6.4 | 0.00 | 0.00 | 0.00 | 58 | 1012.8 |
| 20260505005516 | 19 | 236 | 1.6 | 6.4 | 0.00 | 0.00 | 0.00 | 58 | 1012.8 |
| 20260505005011 | 19 | 215 | 0.0 | 6.4 | 0.00 | 0.00 | 0.00 | 58 | 1012.6 |
| 20260505004527 | 19 | 178 | 1.6 | 4.8 | 0.00 | 0.00 | 0.00 | 57 | 1012.6 |
| 20260505004010 | 20 | 217 | 0.0 | 4.8 | 0.00 | 0.00 | 0.00 | 56 | 1012.6 |
| 20260505003511 | 20 | 215 | 0.0 | 4.8 | 0.00 | 0.00 | 0.00 | 56 | 1012.5 |
| 20260505003010 | 20 | 207 | 0.0 | 3.2 | 0.00 | 0.00 | 0.00 | 55 | 1012.5 |
| 20260505002510 | 20 | 268 | 0.0 | 3.2 | 0.00 | 0.00 | 0.00 | 56 | 1012.4 |
| 20260505002010 | 20 | 271 | 0.0 | 4.8 | 0.00 | 0.00 | 0.00 | 55 | 1012.4 |
| 20260505001510 | 21 | 271 | 0.0 | 4.8 | 0.00 | 0.00 | 0.00 | 54 | 1012.5 |
| 20260505001010 | 21 | 233 | 0.0 | 3.2 | 0.00 | 0.00 | 0.00 | 53 | 1012.5 |
| 20260505000516 | 21 | 227 | 0.0 | 6.4 | 0.00 | 0.00 | 0.00 | 52 | 1012.4 |
| 20260505000015 | 21 | 260 | 1.6 | 8.0 | 0.00 | 0.00 | 0.00 | 51 | 1012.4 |
| 20260504235508 | 21 | 237 | 1.6 | 6.4 | 0.00 | 0.00 | 0.00 | 50 | 1012.3 |
| 20260504235008 | 21 | 220 | 1.6 | 9.7 | 0.00 | 0.00 | 0.00 | 50 | 1012.4 |
| 20260504234508 | 22 | 237 | 0.0 | 6.4 | 0.00 | 0.00 | 0.00 | 50 | 1012.4 |
| 20260504234008 | 22 | 228 | 1.6 | 9.7 | 0.00 | 0.00 | 0.00 | 50 | 1012.3 |
| 20260504233507 | 22 | 218 | 4.8 | 9.7 | 0.00 | 0.00 | 0.00 | 49 | 1012.3 |
| 20260504233008 | 22 | 224 | 0.0 | 6.4 | 0.00 | 0.00 | 0.00 | 49 | 1012.2 |
| 20260504232506 | 22 | 217 | 1.6 | 11.3 | 0.00 | 0.00 | 0.00 | 50 | 1012.2 |
| 20260504232005 | 22 | 264 | 3.2 | 9.7 | 0.00 | 0.00 | 0.00 | 48 | 1012.1 |
| 20260504231506 | 22 | 220 | 1.6 | 12.9 | 0.00 | 0.00 | 0.00 | 49 | 1012.1 |
| 20260504231008 | 22 | 227 | 3.2 | 14.5 | 0.00 | 0.00 | 0.00 | 47 | 1012.1 |